User: anonymous   Login
Location: Unspecified
(0.0000°N, 0.0000°E)
Time: 18:56:41
(UTC+00:00)
Language:

DNEPR OBJECT AD - Orbit

View from above orbital plane
View from above orbital plane
View from above satellite
View from above satellite

Ground track
Ground track

The orbit data is extracted from the following two-line orbital elements,

1 39443U 13066AD  19341.10886274  .00000381  00000-0  39093-4 0  9993
2 39443  97.5428  28.6580 0025502  73.8163 286.5862 14.95662245327868
Epoch (UTC): 07 December 2019 02:36:45
Eccentricity: 0.0025502
inclination: 97.5428°
perigee height: 562 km
apogee height: 598 km
right ascension of ascending node: 28.6580°
argument of perigee: 73.8163°
revolutions per day: 14.95662245
mean anomaly at epoch: 286.5862°
orbit number at epoch: 32786

The dashed part of the orbit path shows where the satellite is in the earth's shadow,  

DLR